Location: Mount Graham
(32.7016°N, 109.8912°W)
Time: 05:13:54
(UTC-07:00)

Daily predictions for brighter satellites

Satellite Brightness Start Highest point End
(mag) Time Altitude Azimuth Time Altitude Azimuth Time Altitude Azimuth
Atlas Centaur 2 3.2 03:58:48 62° ESE 03:58:48 62° ESE 04:05:51 10° E
SL-16 R/B 3.9 04:11:34 25° NNE 04:11:34 25° NNE 04:13:49 10° NNE
Cosmos 2061 Rocket 4.0 04:33:09 73° SSW 04:33:09 73° SSW 04:38:55 10° S
CZ-4B R/B 3.2 04:29:59 10° NNE 04:35:41 82° ESE 04:41:19 10° S
Cosmos 2297 4.2 04:36:24 39° N 04:38:17 57° ENE 04:43:53 10° SE
SL-8 R/B 4.2 04:39:33 56° E 04:39:33 56° E 04:43:27 10° NE
Cosmos 2242 Rocket 4.3 04:42:50 48° SE 04:42:50 48° SE 04:46:12 10° SSE
Cosmos 2016 Rocket 3.8 04:41:19 59° NNW 04:42:36 84° W 04:48:41 10° S
Cosmos 2278 Rocket 3.5 04:47:24 26° SSW 04:47:24 26° SSW 04:49:59 10° S
IRS-1C Rocket 4.0 04:40:14 10° NNE 04:45:31 85° ESE 04:50:46 10° SSW
Centaur D-1AR AC-48 3.7 04:47:29 17° S 04:47:29 17° S 04:49:36 10° SE
Cosmos 1862 Rocket 4.0 04:50:04 45° NNE 04:51:12 61° E 04:55:35 10° SSE
Cosmos 1486 Rocket 4.0 04:56:42 64° WSW 04:56:42 64° WSW 05:01:40 10° S
Delta 2 Rocket 3.5 05:01:55 62° NE 05:01:55 62° NE 05:05:57 10° E
Cosmos 1864 Rocket 4.4 05:05:07 10° N 05:11:20 70° W 05:17:28 10° S
Hubble Space Telescope 1.3 05:11:14 43° SSW 05:11:46 46° S 05:15:44 10° ESE
OAO 1 Rocket 4.5 05:10:41 51° WNW 05:11:55 69° N 05:17:17 10° E
Cosmos 1354 Rocket 3.9 05:08:59 23° NNW 05:12:21 86° ENE 05:17:35 10° SSE
USA 32 3.9 05:10:04 10° S 05:15:17 85° W 05:20:32 10° N
Cosmos 1943 4.5 05:12:02 10° S 05:17:21 42° ESE 05:22:40 10° NE
CZ-3B R/B 2.7 05:12:20 10° SW 05:17:42 82° NE 05:19:39 10° NE
USA 215 4.4 05:12:04 10° ENE 05:18:12 42° SE 05:24:18 10° SSW
Cosmos 1825 2.5 05:19:35 10° S 05:23:18 65° E 05:27:03 10° NNE
ATLAS 5 CENTAUR R/B 2.5 05:22:12 10° SSW 05:26:32 52° ESE 05:31:10 10° NE
Cosmos 2233 Rocket 3.8 05:25:18 10° N 05:31:26 78° W 05:37:32 10° S
DELTA 2 R/B (1) 4.1 05:29:20 27° NW 05:32:06 50° NNE 05:37:31 10° E
Lacrosse 5 rocket 3.0 05:35:26 21° NNW 05:35:26 21° NNW 05:38:35 10° N
Meteor 2-3 Rocket 4.2 05:34:26 10° SW 05:39:46 38° WNW 05:45:05 10° N
Okean-O 2.5 05:36:54 10° N 05:41:17 63° WNW 05:45:38 10° SSW
Atlas Centaur 2 3.4 05:41:25 19° W 05:47:12 56° SSW 05:55:31 10° ESE
Cosmos 1703 Rocket 3.4 05:46:06 10° N 05:50:28 75° W 05:54:47 10° S
Cosmos 1869 Rocket 3.4 05:46:25 10° SSW 05:50:43 67° W 05:55:06 10° N
Cosmos 1606 2.6 05:47:07 10° N 05:50:55 83° W 05:54:44 10° S
SL-16 R/B 3.8 05:53:33 14° NW 05:53:33 14° NW 05:55:52 10° NNW
Cosmos 1603 4.1 05:52:02 10° SW 05:57:18 41° WNW 06:02:38 10° N
Intercosmos 25 3.5 05:58:12 10° NNW 06:01:43 67° W 06:06:48 10° S
Cosmos 1782 2.8 05:59:41 10° NNW 06:03:34 57° W 06:07:26 10° S
Cosmos 1408 3.6 06:03:22 10° SW 06:06:30 25° W 06:09:38 10° NNW
COSMO-SKYMED 1 2.9 06:03:00 10° S 06:07:09 46° W 06:11:20 10° NNW
NOSS 3-1 (C) 4.2 06:03:25 10° NNW 06:11:21 87° WSW 06:19:57 10° SSE
CZ-2C R/B 2.5 06:07:33 10° N 06:12:40 65° WNW 06:17:37 10° SSW
Cosmos 2084 Rocket 3.8 06:11:06 11° NW 06:14:31 37° WSW 06:18:08 10° S
Cosmos 405 Rocket 2.6 06:17:21 10° NNW 06:21:01 61° W 06:24:43 10° S
Cosmos 2369 Rocket 2.4 06:16:33 10° NNW 06:22:10 76° ENE 06:27:45 10° SSE
Ariane Rocket 3.8 06:17:44 10° NNE 06:22:43 58° ESE 06:27:40 10° S
Thor Agena Rocket 3.7 06:20:18 10° SSE 06:25:24 82° ENE 06:30:28 10° NNW
Cosmos 968 Rocket 3.9 06:22:58 10° NNW 06:27:57 44° WSW 06:32:53 10° S
IDEFIX/ARIANE 42P 3.2 06:25:54 10° N 06:30:27 32° WNW 06:35:00 10° SW
Cosmos 2034 Rocket 4.0 06:25:14 10° N 06:31:29 84° W 06:37:38 10° S
